Simultaneous Nadir Overpasses (SNOs) Predictions

Prediction of SNOs between GOES-16 and METOP-B Satellite Orbit:

Table of predicted SNOs for the next 14.0 days since TLE Epoch: 4/30/2022
Index Date Time (GOES-16) GOES-16 Lat,Lon METOP-B Lat,Lon Distance(km) Time Diff (sec)
1 05/01/2022 02:26:16 -0.07, -75.18 0.11, -74.38 91.27 80
2 05/02/2022 14:45:07 0.06, -75.20 0.90, -78.94 426.68 80
3 05/03/2022 14:27:07 0.06, -75.20 -0.23, -73.95 142.67 80
4 05/05/2022 02:46:07 -0.05, -75.19 -0.82, -78.54 382.15 80
5 05/06/2022 02:22:47 -0.05, -75.19 0.32, -73.54 187.39 80
6 05/07/2022 14:41:39 0.04, -75.21 0.68, -78.11 329.80 80
7 05/08/2022 14:23:38 0.04, -75.22 -0.40, -73.10 240.21 80
8 05/10/2022 02:42:38 -0.04, -75.22 -0.58, -77.71 283.46 80
9 05/11/2022 02:19:18 -0.04, -75.23 0.50, -72.70 286.97 80
10 05/12/2022 14:38:09 0.03, -75.26 0.48, -77.27 228.91 80
11 05/13/2022 14:20:09 0.03, -75.27 -0.61, -72.26 341.92 80
